User: anonymous   Login
Location: Unspecified
(0.0000°N, 0.0000°E)
Time: 09:19:36
(UTC+00:00)
Language:

Isis 2 - Orbit

View from above orbital plane
View from above orbital plane
View from above satellite
View from above satellite

Ground track
Ground track

The orbit data is extracted from the following two-line orbital elements,

1  5104U 71024A   19047.92441315 +.00000014 +00000-0 +17911-4 0  9992
2  5104 088.1686 023.5270 0042213 283.4756 128.2986 12.67839798215492
Epoch (UTC): 16 February 2019 22:11:09
Eccentricity: 0.0042213
inclination: 88.1686°
perigee height: 1358 km
apogee height: 1423 km
right ascension of ascending node: 23.5270°
argument of perigee: 283.4756°
revolutions per day: 12.67839798
mean anomaly at epoch: 128.2986°
orbit number at epoch: 21549

The dashed part of the orbit path shows where the satellite is in the earth's shadow,  

DLR